Regional Weather Roundup
Issued by NWS

Home | Current Version | Previous Version | Text Only | Print | Product List | Glossary Off
Versions: 1 2 3 4 5 6 7 8 9 10 11 12 13 14 15 16 17 18 19 20 21 22 23 24 25 26 27 28 29 30 31 32 33 34 35 36 37 38 39 40 41 42 43 44 45 46 47 48 49 50

000
ASUS43 KFSD 282102
RWRSD

WEATHER ROUNDUP FOR SOUTH DAKOTA
NATIONAL WEATHER SERVICE SIOUX FALLS SD
400 PM CDT THU APR 28 2016

NOTE: "FAIR" INDICATES FEW OR NO CLOUDS BELOW 12,000 FEET WITH NO
SIGNIFICANT WEATHER AND/OR OBSTRUCTIONS TO VISIBILITY.


SDZ001>005-009-010-012>017-282200-
NORTHWEST AND NORTH CENTRAL SOUTH DAKOTA

CITY           SKY/WX    TMP DP  RH WIND       PRES   REMARKS
BUFFALO          N/A     37  34  89 E6        30.04R
FAITH            N/A     38  32  79 N8        30.09R
MOBRIDGE       CLOUDY    54  35  48 E8        30.03F
$$

SDZ012>016-024>037-041>051-057-063-072>074-282200-
SOUTHWEST AND SOUTH CENTRAL SOUTH DAKOTA

CITY           SKY/WX    TMP DP  RH WIND       PRES   REMARKS
RAPID CTY ARPT CLOUDY    41  34  76 N12       30.05S
PIERRE         CLOUDY    47  36  65 N9        30.05S
CUSTER         CLOUDY    36  28  73 NE8       29.98S
ELLSWORTH AFB  CLOUDY    40  35  83 N12       30.04
PHILIP         CLOUDY    43  36  76 NE13      30.07F
PINE RIDGE     LGT RAIN  40  34  79 N9        30.03R
WINNER         CLOUDY    44  37  76 N12       30.04S
$$

SDZ004>011-016>023-039-040-282200-
NORTHEAST SOUTH DAKOTA

CITY           SKY/WX    TMP DP  RH WIND       PRES   REMARKS
ABERDEEN       CLOUDY    51  37  58 NE10      30.05F
WATERTOWN      LGT SNOW  34  32  92 NE6       30.04S VSB 3/4 WCI  29
BROOKINGS      CLOUDY    39  34  82 NE16      30.01S
SISSETON         N/A     47  33  58 SE8       30.06R
$$

SDZ017-020-022-023-036>040-048>070-282200-
SOUTHEAST SOUTH DAKOTA

CITY           SKY/WX    TMP DP  RH WIND       PRES   REMARKS
SIOUX FALLS    CLOUDY    42  36  79 N9        30.02R
HURON          CLOUDY    43  37  79 NE13      30.04S
MITCHELL       CLOUDY    43  38  82 N12       30.05R
YANKTON        CLOUDY    43  37  81 NW9       30.02R
$$

ABBREVIATIONS USED IN REMARKS
   TC - TEMPERATURE IN CELSIUS
  WCI - WIND CHILL INDEX
   HX - HEAT INDEX
  VSB - VISIBILITY





USA.gov is the U.S. government's official web portal to all federal, state and local government web resources and services.